Location: Dammartin
(48.9032°N, 1.6195°E)
Time: 13:55:21
(UTC+00:00)

YUBILEINY - Pass Details

Date: 13 December 2023
Orbit: 1479 x 1508 km, 82.5° (Epoch: 02 March)

Event Time Altitude Azimuth Distance (km) Brightness Sun altitude
Rises 16:45:12 0° 351° (N) 4,627 ? -7.7°
Reaches altitude 10° 16:49:47 10° 13° (NNE) 3,639 ? -8.4°
Maximum altitude 16:54:47 16° 48° (NE) 3,172 ? -9.1°
Drops below altitude 10° 16:59:45 10° 84° (E) 3,623 ? -9.8°
Enters shadow 17:00:34 - 89° (E) 3,771 ? -10.0°
